Regional Weather Roundup
Issued by NWS

Home | Current Version | Previous Version | Text Only | Print | Product List | Glossary On
Versions: 1 2 3 4 5 6 7 8 9 10 11 12 13 14 15 16 17 18 19 20 21 22 23 24 25 26 27 28 29 30 31 32 33 34 35 36 37 38 39 40 41 42 43 44 45 46 47 48 49 50
000
ASUS44 KOUN 250710
RWROK

WEATHER ROUNDUP FOR OKLAHOMA
NATIONAL WEATHER SERVICE NORMAN OK
200 AM CDT FRI JUL 25 2014

NOTE: "FAIR" INDICATES FEW OR NO CLOUDS BELOW 12,000 FEET WITH NO
      SIGNIFICANT WEATHER AND/OR OBSTRUCTIONS TO VISIBILITY.

OKZ001>007-009>012-014-015-017-250800-
NORTHWEST OKLAHOMA AND THE PANHANDLE

CITY           SKY/WX    TMP DP  RH WIND       PRES   REMARKS
ENID/WOODRING  CLEAR     73  70  88 S6        29.96R
$$

OKZ016-021>023-033>039-044-045-250800-
SOUTHWEST OKLAHOMA

CITY           SKY/WX    TMP DP  RH WIND       PRES   REMARKS
LAWTON/REGL    CLEAR     77  66  68 S5        30.00F
LAWTON/FT SILL CLEAR     77  66  69 S7        30.00S
FREDERICK      PTCLDY    78  68  71 S9        29.98S
HOBART         CLEAR     77  69  76 S10       30.01F
ALTUS AFB      PTCLDY    77  70  79 SE7       30.00S
$$

OKZ018>020-024>031-250800-
CENTRAL OKLAHOMA

CITY           SKY/WX    TMP DP  RH WIND       PRES   REMARKS
OKLAHOMA CITY  PTCLDY    74  68  81 S6        30.00S
OKC/TINKER AFB CLEAR     74  69  83 S12       30.00F
STILLWATER     CLEAR     77  69  76 SE7       29.98R
$$

OKZ008-013-054>072-250800-
NORTHEAST OKLAHOMA

CITY           SKY/WX    TMP DP  RH WIND       PRES   REMARKS
TULSA          MOCLDY    77  71  82 SE12      30.00R
TULSA/JONES    PTCLDY    77  72  84 S6        30.00R
PONCA CITY     CLEAR     78  71  79 S12       29.97R
BARTLESVILLE   MOCLDY    74  72  93 S6        29.99S
MUSKOGEE       CLEAR     72  70  93 SE7       30.02R
$$

OKZ032-040>043-046>053-073>077-250800-
SOUTH CENTRAL/SOUTHEAST OKLAHOMA

CITY           SKY/WX    TMP DP  RH WIND       PRES   REMARKS
ARDMORE/DWNTWN CLEAR     73  68  83 CALM      30.02S
MCALESTER      PTCLDY    76  71  85 S3        30.02S
$$




USA.gov is the U.S. government's official web portal to all federal, state and local government web resources and services.